AirNav   Everest Fuels
 
 744 users online  

KSER Freeman Municipal Airport
Seymour, Indiana, USA

GOING TO SEYMOUR?


FAA INFORMATION EFFECTIVE 26 JANUARY 2023

Location

FAA Identifier: SER
Lat/Long: 38-55-27.3232N 085-54-34.9941W
38-55.455387N 085-54.583235W
38.9242564,-85.9097206
(estimated)
Elevation: 582.7 ft. / 177.6 m (surveyed)
Variation: 02W (1985)
From city: 2 miles SW of SEYMOUR, IN
Time zone: UTC -5 (UTC -4 during Daylight Saving Time)
Zip code: 47274

Airport Operations

Airport use: Open to the public
Activation date: 05/1941
Control tower: no
ARTCC: INDIANAPOLIS CENTER
FSS: TERRE HAUTE FLIGHT SERVICE STATION
NOTAMs facility: HUF (NOTAM-D service available)
Attendance: 0800-1630
Wind indicator: lighted
Segmented circle: yes
Lights: ACTVT ODALS RWY 05 & 23; REIL RWY 05, 14, 23 & 32; PAPI RWY 05, 14, 23 & 32 - CTAF. MIRL RWY 05/23 & 14/32 PRESET ON.
Beacon: white-green (lighted land airport)
Operates sunset to sunrise.

Airport Communications

CTAF/UNICOM: 122.8
WX AWOS-3: 119.425 (812-522-4244)
WX AWOS-3 at OVO (16 nm NE): 120.625 (812-346-5041)
  • APCH/DEP SVC PRVDD BY INDIANAPOLIS ARTCC ON FREQS 124.775/269.45 (HENRYVILLE RCAG).

Nearby radio navigation aids

VOR radial/distance  VOR name  Freq  Var
OOMr114/35.3HOOSIER VORTAC110.2002W

 
NDB name  Hdg/Dist  Freq  Var  ID
BATESVILLE235/39.525405WHLB .... .-.. -...

Airport Services

Fuel available: 100LL JET-A1+
100LL:SELF SERVE AVBL 24 HR.
Parking: hangars and tiedowns
Airframe service: MINOR
Powerplant service: MINOR
Bottled oxygen: LOW

Runway Information

Runway 5/23

Dimensions: 6001 x 100 ft. / 1829 x 30 m
Surface: asphalt/grooved, in good condition
Weight bearing capacity: 
Single wheel: 115.0
Double wheel: 180.0
Double tandem: 300.0
Runway edge lights: medium intensity
RUNWAY 5  RUNWAY 23
Latitude: 38-54.915948N38-55.626148N
Longitude: 085-54.664262W085-53.783818W
Elevation: 568.3 ft.577.7 ft.
Traffic pattern: leftleft
Runway heading: 046 magnetic, 044 true226 magnetic, 224 true
Markings: nonprecision, in good conditionnonprecision, in good condition
Visual slope indicator: 2-light PAPI on left (3.00 degrees glide path)2-light PAPI on left (3.00 degrees glide path)
Approach lights: ODALS: omnidirectional approach lighting systemODALS: omnidirectional approach lighting system
Runway end identifier lights: yesyes
Touchdown point: yes, no lightsyes, no lights
Instrument approach: LOCALIZER

Runway 14/32

Dimensions: 5502 x 100 ft. / 1677 x 30 m
Surface: asphalt/grooved, in good condition
Weight bearing capacity: 
Single wheel: 20.0
Double wheel: 35.0
Double tandem: 50.0
Runway edge lights: medium intensity
RUNWAY 14  RUNWAY 32
Latitude: 38-55.722890N38-55.092132N
Longitude: 085-55.257455W085-54.424203W
Elevation: 582.7 ft.570.3 ft.
Traffic pattern: leftleft
Runway heading: 136 magnetic, 134 true316 magnetic, 314 true
Markings: nonprecision, in good conditionnonprecision, in good condition
Visual slope indicator: 2-light PAPI on left (3.00 degrees glide path)2-light PAPI on left (3.00 degrees glide path)
Runway end identifier lights: yesyes
Touchdown point: yes, no lightsyes, no lights
Obstructions: 10 ft. crops, 440 ft. from runway, 24:1 slope to clearnone

Runway 18U/36U

Dimensions: 1215 x 100 ft. / 370 x 30 m
Surface: turf, in fair condition
RUNWAY 18U  RUNWAY 36U
Latitude: 38-56.089530N38-55.889350N
Longitude: 085-54.939063W085-54.934893W
Elevation: 569.5 ft.573.1 ft.
Traffic pattern: leftright
Runway heading: 182 magnetic, 180 true002 magnetic, 000 true
Touchdown point: yes, no lightsyes, no lights

Runway 9U/27U

Dimensions: 1104 x 100 ft. / 336 x 30 m
Surface: turf, in good condition
RUNWAY 9U  RUNWAY 27U
Latitude: 38-56.106178N38-56.108513N
Longitude: 085-54.978998W085-54.746230W
Elevation: 569.3 ft.565.4 ft.
Traffic pattern: leftleft
Runway heading: 092 magnetic, 090 true272 magnetic, 270 true
Touchdown point: yes, no lightsyes, no lights

Airport Ownership and Management from official FAA records

Ownership: Publicly-owned
Owner: SEYMOUR AIRPORT AUTHORITY
P.O. BOX 702
SEYMOUR, IN 47274
Phone 812-522-2031
Manager: COLIN SMITH
1025 A AVENUE, PO BOX 702
SEYMOUR, IN 47274
Phone 812-522-2031

Airport Operational Statistics

Aircraft based on the field: 67
Single engine airplanes: 41
Multi engine airplanes: 8
Helicopters: 2
Gliders airplanes: 16
    
Aircraft operations: avg 57/day *
57% local general aviation
21% transient general aviation
21% air taxi
1% military
* for 12-month period ending 31 December 2019

Additional Remarks

A52-09U 30 FT PLINE MKD WITH BALLS 700 FT FM RWY END.
A52-18U 20 FT BLDG 550 FT FM RWY END.
RDO CTL ACFT OPS ON & INVOF ARPT DLY FM APR - OCT.
TWY LGTS FM INT 14/32 & 05/23 TO APRON ONLY.
FOR CD CTC INDIANAPOLIS ARTCC AT 317-247-2411.

Instrument Procedures

NOTE: All procedures below are presented as PDF files. If you need a reader for these files, you should download the free Adobe Reader.

NOT FOR NAVIGATION. Please procure official charts for flight.
FAA instrument procedures published for use from 26 January 2023 at 0901Z to 23 February 2023 at 0900z.

 
IAPs - Instrument Approach Procedures
RNAV (GPS) RWY 05 **CHANGED**   download
RNAV (GPS) RWY 14 **CHANGED**   download
RNAV (GPS) RWY 23 **CHANGED**   download
RNAV (GPS) RWY 32 **CHANGED**   download
NOTE: Special Take-Off Minimums/Departure Procedures apply   download (474KB)

Other nearby airports with instrument procedures:

KOVO - North Vernon Airport (16 nm NE)
KBAK - Columbus Municipal Airport (20 nm N)
KIMS - Madison Municipal Airport (23 nm SE)
KBFR - Virgil I Grissom Municipal Airport (26 nm W)
I34 - Greensburg Municipal Airport (30 nm NE)
 
Loc | Ops | Rwys | IFR | FBO | Links
Com | Nav | Svcs | Stats | Notes
Area around KSER (Freeman Municipal Airport)
 
Road maps at: MapQuest Bing Google
 
Aerial photo
WARNING: Photo may not be current or correct
Aerial photo of KSER (Freeman Municipal Airport)
Do you have a better or more recent aerial photo of Freeman Municipal Airport that you would like to share? If so, please send us your photo.

 
Sectional chart

 
Airport distance calculator
Flying to Freeman Municipal Airport? Find the distance to fly.

From to KSER

Sunrise and sunset
Times for 03-Feb-2023
 Local
(UTC-5)
 Zulu
(UTC)
Morning civil twilight07:2112:21
Sunrise07:4912:49
Sunset18:0623:06
Evening civil twilight18:3423:34

Current date and time
Zulu (UTC)  03-Feb-2023 05:23:22
Local (UTC-5)  03-Feb-2023 00:23:22
 
METAR
KBAK 
21nm N 
030245Z 26010KT 10SM CLR M01/M08 A3017 RMK LAST
KIMS 
23nm SE 
030455Z AUTO 28004KT 10SM CLR M01/M05 A3021 RMK AO2
KBFR 
26nm W 
030455Z AUTO 33007KT 10SM SCT026 00/M05 A3022 RMK AO2
KJVY 
34nm S 
030455Z AUTO 30008KT 10SM CLR 00/M04 RMK AO2 PWINO
KBMG 
36nm NW 
030453Z AUTO 33011G23KT 10SM CLR M02/M09 A3024 RMK AO2 PK WND 34032/0427 SLP250 T10221094 400391072
KHLB 
39nm NE 
030455Z AUTO 33013G21KT 300V360 10SM BKN025 OVC030 M01/M06 A3018 RMK A01
KGEZ 
40nm N 
030453Z AUTO 32016KT 10SM FEW035 M02/M07 A3021 RMK AO2 PK WND 34030/0410 SLP237 T10171072 400501056
TAF
KBMG 
36nm NW 
021720Z 0218/0318 24011KT P6SM SCT250 FM030000 27008KT P6SM SCT250 FM030400 34012G20KT P6SM FEW030 SCT250 FM031200 34011KT P6SM SCT250
NOTAMs
Click for the latest NOTAMs
NOTAMs are issued by the DoD/FAA and will open in a separate window not controlled by AirNav.

 

 
 

FBO, Fuel Providers, and Aircraft Ground Support

  
 Business Name 
 
 Contact 
 
 Services / Description 
 
Fuel Prices
 
Comments
  
Freeman Municipal Airport 812-522-2031
[email]
Airport management, Aviation fuel, Aircraft parking (ramp or tiedown), Hangar leasing / sales, Passenger terminal and lounge, Pilots lounge / snooze room, ...

More info about Freeman Municipal Airport
Phillips 66
100LL Jet A
SS $5.70 $5.10 
 Updated 30-Jan-2023
 
   write
SS=Self service
Update Fuel Prices
 

Would you like to see your business listed on this page?

 If your business provides an interesting product or service to pilots, flight crews, aircraft, or users of the Freeman Municipal Airport, you should consider listing it here.  To start the listing process, click on the button below
 
Add a business
 

Other Pages about Freeman Municipal Airport

Update a link
 
Copyright © AirNav, LLC. All rights reserved. Privacy Policy  Contact